Location: Brienzwiler
(46.7508°N, 8.1014°E)
Time: 00:19:31
(UTC+00:00)

Cosmos 1076 Rocket - Pass Details

Date: 05 July 2020
Orbit: 589 x 613 km, 82.5° (Epoch: 11 August)

Event Time Altitude Azimuth Distance (km) Brightness Sun altitude
Exits shadow 21:36:07 28° 140° (SE) 1,125 4.3 -15.8°
Maximum altitude 21:37:44 41° 93° (E) 880 4.1 -15.9°
Drops below altitude 10° 21:41:46 10° 23° (NNE) 1,944 6.7 -16.2°
Sets 21:44:03 0° 16° (NNE) 2,848 7.7 -16.4°
